Index of /observatory/weather/Observatory_weather

[ICO]NameLast modifiedSizeDescription

[DIR]Parent Directory  -  
[IMG]10MinAvgWindSpeed.gif22-Nov-2017 01:55 4.3K 
[TXT]2004.txt11-May-2015 12:13 13M 
[TXT]2005.txt04-Aug-2015 09:37 13M 
[TXT]2006.txt04-Aug-2015 09:37 13M 
[TXT]2007.txt04-Aug-2015 09:37 13M 
[TXT]200305.txt11-May-2015 12:12 365K 
[TXT]200306.txt11-May-2015 12:12 1.1M 
[TXT]200307.txt11-May-2015 12:12 1.0M 
[TXT]200308.txt11-May-2015 12:13 1.0M 
[TXT]200309.txt11-May-2015 12:13 1.0M 
[TXT]200310.txt11-May-2015 12:13 1.0M 
[TXT]200311.txt11-May-2015 12:13 1.0M 
[TXT]200312.txt11-May-2015 12:13 1.0M 
[TXT]200401.txt11-May-2015 12:13 1.0M 
[TXT]200402.txt11-May-2015 12:13 959K 
[TXT]200403.txt11-May-2015 12:13 961K 
[TXT]200404.txt11-May-2015 12:13 1.0M 
[TXT]200405.txt11-May-2015 12:13 1.0M 
[TXT]200406.txt11-May-2015 12:13 1.0M 
[TXT]200407.txt11-May-2015 12:13 1.0M 
[TXT]200409.txt11-May-2015 12:13 1.0M 
[TXT]200410.txt11-May-2015 12:13 1.0M 
[TXT]200411.txt04-Aug-2015 09:37 1.2M 
[TXT]200412.txt04-Aug-2015 09:37 1.2M 
[TXT]200501.txt04-Aug-2015 09:37 1.2M 
[TXT]200502.txt04-Aug-2015 09:37 1.1M 
[TXT]200503.txt04-Aug-2015 09:37 1.3M 
[TXT]200504.txt04-Aug-2015 09:37 1.2M 
[TXT]200505.txt04-Aug-2015 09:37 1.3M 
[TXT]200506.txt04-Aug-2015 09:37 1.2M 
[TXT]200507.txt04-Aug-2015 09:37 1.3M 
[TXT]200508.txt04-Aug-2015 09:37 1.3M 
[TXT]200509.txt04-Aug-2015 09:37 1.2M 
[TXT]200510.txt04-Aug-2015 09:37 1.3M 
[TXT]200511.txt04-Aug-2015 09:37 1.2M 
[TXT]200512.txt04-Aug-2015 09:37 1.2M 
[TXT]200601.txt04-Aug-2015 10:09 1.2M 
[TXT]200602.txt04-Aug-2015 10:09 796K 
[TXT]200603.txt04-Aug-2015 10:09 14M 
[TXT]200604.txt04-Aug-2015 10:09 1.0M 
[TXT]200605.txt04-Aug-2015 10:09 1.1M 
[TXT]200606.txt04-Aug-2015 10:09 1.1M 
[TXT]200607.txt04-Aug-2015 10:09 1.1M 
[TXT]200608.txt04-Aug-2015 10:09 1.1M 
[TXT]200609.txt04-Aug-2015 10:09 1.1M 
[TXT]200610.txt04-Aug-2015 10:09 1.1M 
[TXT]200611.txt04-Aug-2015 10:09 1.0M 
[TXT]200612.txt04-Aug-2015 10:09 1.0M 
[TXT]200701.txt04-Aug-2015 10:24 1.1M 
[TXT]200702.txt04-Aug-2015 10:24 1.0M 
[TXT]200703.txt04-Aug-2015 10:24 1.1M 
[TXT]200704.txt04-Aug-2015 10:24 1.0M 
[TXT]200705.txt04-Aug-2015 10:24 1.1M 
[TXT]200706.txt04-Aug-2015 10:24 1.1M 
[TXT]200707.txt04-Aug-2015 10:30 1.1M 
[TXT]200708.txt04-Aug-2015 10:30 1.1M 
[TXT]200709.txt04-Aug-2015 10:30 1.1M 
[TXT]200710.txt04-Aug-2015 10:24 1.1M 
[TXT]200711.txt04-Aug-2015 10:24 1.0M 
[TXT]200712.txt04-Aug-2015 10:24 1.1M 
[TXT]200801.txt04-Aug-2015 09:37 1.1M 
[TXT]200802.txt04-Aug-2015 09:37 1.0M 
[TXT]200803.txt04-Aug-2015 09:37 1.1M 
[TXT]200804.txt04-Aug-2015 09:37 1.0M 
[TXT]200805.txt04-Aug-2015 09:37 1.1M 
[TXT]200806.txt04-Aug-2015 09:37 1.1M 
[TXT]200807.txt04-Aug-2015 09:37 1.1M 
[TXT]200808.txt04-Aug-2015 09:37 1.1M 
[TXT]200809.txt04-Aug-2015 09:37 1.1M 
[TXT]200810.txt04-Aug-2015 09:37 1.1M 
[TXT]200811.txt04-Aug-2015 09:37 1.0M 
[TXT]200812.txt04-Aug-2015 09:37 1.1M 
[TXT]200901.txt04-Aug-2015 09:37 1.0M 
[TXT]200902.txt04-Aug-2015 09:37 1.0M 
[TXT]200903.txt04-Aug-2015 09:37 1.0M 
[TXT]200904.txt04-Aug-2015 09:37 1.0M 
[TXT]200905.txt04-Aug-2015 09:37 1.1M 
[TXT]200906.txt04-Aug-2015 09:37 1.1M 
[TXT]200907.txt04-Aug-2015 09:37 1.1M 
[TXT]200908.txt04-Aug-2015 09:37 1.1M 
[TXT]200909.txt04-Aug-2015 09:37 1.1M 
[TXT]200910.txt04-Aug-2015 09:37 1.1M 
[TXT]200911.txt04-Aug-2015 09:37 1.0M 
[TXT]200912.txt04-Aug-2015 09:37 1.1M 
[TXT]201001.txt04-Aug-2015 09:37 1.0M 
[TXT]201002.txt04-Aug-2015 09:37 1.0M 
[TXT]201003.txt04-Aug-2015 09:37 1.1M 
[TXT]201004.txt04-Aug-2015 09:37 1.0M 
[TXT]201005.txt04-Aug-2015 09:37 1.1M 
[TXT]201006.txt04-Aug-2015 09:37 1.1M 
[TXT]201007.txt04-Aug-2015 09:37 1.1M 
[TXT]201008.txt04-Aug-2015 09:37 880K 
[TXT]201009.txt04-Aug-2015 09:37 667K 
[TXT]201010.txt04-Aug-2015 09:37 1.1M 
[TXT]201011.txt04-Aug-2015 09:37 1.0M 
[TXT]201012.txt04-Aug-2015 09:37 1.1M 
[TXT]201101.txt04-Aug-2015 09:37 746K 
[TXT]201102.txt04-Aug-2015 09:37 665K 
[TXT]201103.txt04-Aug-2015 09:37 942K 
[TXT]201104.txt04-Aug-2015 09:37 1.0M 
[TXT]201105.txt04-Aug-2015 09:37 1.1M 
[TXT]201106.txt04-Aug-2015 09:37 1.1M 
[TXT]201107.txt07-Jul-2014 10:53 1.1M 
[TXT]201108.txt07-Jul-2014 10:53 1.1M 
[TXT]201109.txt04-Aug-2015 10:12 1.1M 
[TXT]201110.txt04-Aug-2015 10:12 1.1M 
[TXT]201111.txt04-Aug-2015 10:12 1.1M 
[TXT]201112.txt04-Aug-2015 10:12 1.1M 
[TXT]201201.txt04-Aug-2015 10:12 1.1M 
[TXT]201202.txt04-Aug-2015 10:13 1.0M 
[TXT]201203.txt04-Aug-2015 10:13 1.0M 
[TXT]201204.txt04-Aug-2015 10:13 1.0M 
[TXT]201205.txt04-Aug-2015 10:13 1.1M 
[TXT]201206.txt04-Aug-2015 10:13 1.1M 
[TXT]201207.txt04-Aug-2015 10:13 1.1M 
[TXT]201208.txt04-Aug-2015 10:13 1.0M 
[TXT]201209.txt04-Aug-2015 10:13 931K 
[TXT]201210.txt04-Aug-2015 10:13 1.1M 
[TXT]201211.txt04-Aug-2015 10:13 1.0M 
[TXT]201212.txt04-Aug-2015 10:13 1.0M 
[TXT]201301.txt04-Aug-2015 10:13 1.0M 
[TXT]201302.txt04-Aug-2015 10:13 792K 
[TXT]201303.txt04-Aug-2015 10:13 864K 
[TXT]201304.txt04-Aug-2015 10:13 1.0M 
[TXT]201305.txt04-Aug-2015 10:13 1.1M 
[TXT]201306.txt04-Aug-2015 10:13 1.1M 
[TXT]201307.txt05-Jun-2014 10:55 771K 
[TXT]201310.txt05-Jun-2014 10:55 388K 
[TXT]201311.txt11-May-2015 12:14 1.0M 
[TXT]201312.txt11-May-2015 12:14 1.1M 
[TXT]201401.txt11-May-2015 12:14 1.0M 
[TXT]201402.txt11-May-2015 12:14 748K 
[TXT]201403.txt11-May-2015 12:14 1.0M 
[TXT]201404.txt11-May-2015 12:14 771K 
[TXT]201405.txt11-May-2015 12:14 1.1M 
[TXT]201406.txt11-May-2015 12:14 1.1M 
[TXT]201407.txt11-May-2015 12:14 1.1M 
[TXT]201408.txt11-May-2015 12:14 950K 
[TXT]201409.txt11-May-2015 12:14 603K 
[TXT]201410.txt11-May-2015 12:14 1.1M 
[TXT]201411.txt11-May-2015 12:14 1.0M 
[TXT]201412.txt11-May-2015 12:14 1.0M 
[TXT]201501.txt03-Aug-2015 13:15 882K 
[TXT]201502.txt03-Aug-2015 13:16 634K 
[TXT]201503.txt03-Aug-2015 13:16 926K 
[TXT]201504.txt11-May-2015 12:16 869K 
[TXT]201505.txt03-Aug-2015 13:16 1.1M 
[TXT]201506.txt03-Aug-2015 13:16 1.0M 
[TXT]201507.txt03-Aug-2015 13:16 1.1M 
[IMG]AirDensity.gif22-Nov-2017 01:55 4.9K 
[IMG]Barometer.gif22-Nov-2017 01:55 5.6K 
[IMG]BarometerHistory.gif22-Nov-2017 01:55 9.0K 
[TXT]Current_Conditions.htm22-Nov-2017 01:55 2.7K 
[TXT]Current_Vantage_Pro.htm22-Nov-2017 01:55 13K 
[IMG]DCAMImage.jpg22-Nov-2017 01:55 106K 
[IMG]DewPoint.gif22-Nov-2017 01:55 5.3K 
[IMG]DewPointHistory.gif22-Nov-2017 01:55 9.4K 
[IMG]EMC.gif22-Nov-2017 01:55 4.5K 
[IMG]HeatIndex.gif22-Nov-2017 01:55 5.3K 
[IMG]HeatIndexHistory.gif22-Nov-2017 01:55 9.5K 
[IMG]HiWindSpeedHistory.gif22-Nov-2017 01:55 9.6K 
[IMG]InsideDewPoint.gif22-Nov-2017 01:55 4.4K 
[IMG]InsideDewPointHistory.gif22-Nov-2017 01:55 9.5K 
[IMG]InsideHeatIndex.gif22-Nov-2017 01:55 4.4K 
[IMG]InsideHeatIndexHistory.gif22-Nov-2017 01:55 9.2K 
[IMG]InsideHumidity.gif22-Nov-2017 01:55 5.4K 
[IMG]InsideHumidityHistory.gif22-Nov-2017 01:55 9.2K 
[IMG]InsideTemp.gif22-Nov-2017 01:55 5.4K 
[IMG]InsideTempHistory.gif22-Nov-2017 01:55 9.2K 
[IMG]MonthlyRain.gif22-Nov-2017 01:55 4.6K 
[TXT]Monthly_Vantage_Pro.htm22-Nov-2017 01:55 11K 
[TXT]Observatory_weather.htm22-Nov-2017 01:55 18K 
[IMG]OutsideHumidity.gif22-Nov-2017 01:55 5.4K 
[IMG]OutsideHumidityHistory.gif22-Nov-2017 01:55 9.0K 
[IMG]OutsideTemp.gif22-Nov-2017 01:55 5.4K 
[IMG]OutsideTempHistory.gif22-Nov-2017 01:55 9.5K 
[IMG]Rain.gif22-Nov-2017 01:55 4.5K 
[IMG]RainHistory.gif22-Nov-2017 01:55 8.8K 
[IMG]RainRate.gif22-Nov-2017 01:55 5.7K 
[IMG]RainRateHistory.gif22-Nov-2017 01:55 9.3K 
[IMG]RainStorm.gif22-Nov-2017 01:55 4.1K 
[IMG]ReceptionHistory.gif22-Nov-2017 01:55 9.5K 
[IMG]SchPhyAst_colour.jpg12-Sep-2013 17:33 24K 
[IMG]THW.gif22-Nov-2017 01:55 4.3K 
[TXT]Tag-List.htm22-Nov-2017 01:55 8.4K 
[IMG]WindChill.gif22-Nov-2017 01:55 4.4K 
[IMG]WindChillHistory.gif22-Nov-2017 01:55 9.4K 
[IMG]WindDirection.gif22-Nov-2017 01:55 4.5K 
[IMG]WindDirectionHistory.gif22-Nov-2017 01:55 8.8K 
[IMG]WindSpeed.gif22-Nov-2017 01:55 4.3K 
[IMG]WindSpeedHistory.gif22-Nov-2017 01:55 9.9K 
[IMG]YearlyRain.gif22-Nov-2017 01:55 4.8K 
[TXT]data.htm22-Nov-2017 01:55 345  
[VID]movie.avi22-Nov-2017 00:01 20M 
[IMG]obs_rollover.jpg16-Sep-2013 10:30 248K 
[TXT]radiation.txt24-Aug-2013 15:40 1.6M 
[TXT]radiation2012.txt22-Nov-2017 01:55 221K 
[DIR]reports/24-Aug-2013 15:40 -  

Apache/2.2.14 (Ubuntu) Server at www.astro.gla.ac.uk Port 80